Location: Cahas Mountain Overlook
(37.0833°N, 80.1000°W)
Time: 11:36:58
(UTC-05:00)

X-37B - Visible Passes

Search period start: 03 December 2021 00:00
Search period end: 13 December 2021 00:00
Orbit: 330 x 341 km, 45.0° (Epoch: 20 November)

Date Brightness Start Highest point End Pass type
(mag) Time Alt. Az. Time Alt. Az. Time Alt. Az.
03 Dec 2.6 18:34:04 10° S 18:35:19 16° SSE 18:35:19 16° SSE visible
04 Dec 2.2 18:53:35 10° SW 18:55:10 28° SSW 18:55:10 28° SSW visible
05 Dec 2.3 17:39:30 10° S 17:41:32 18° SE 17:43:34 10° E visible
05 Dec 3.3 19:14:02 10° WSW 19:14:56 18° W 19:14:56 18° W visible
06 Dec 0.6 17:59:01 10° SW 18:01:48 54° SSE 18:03:24 22° ENE visible
07 Dec 0.8 18:19:27 10° WSW 18:22:15 51° NNW 18:23:02 36° NNE visible
08 Dec 2.0 18:40:24 10° WNW 18:42:38 25° NNW 18:42:38 25° NNW visible
09 Dec 3.2 19:01:31 10° NW 19:02:11 13° NW 19:02:11 13° NW visible
10 Dec 1.9 17:45:49 10° WNW 17:48:17 25° NNW 17:50:30 11° NE visible
11 Dec 2.4 18:06:56 10° NW 18:09:00 18° N 18:10:02 15° NNE visible
12 Dec 2.5 18:27:53 10° NW 18:29:35 16° N 18:29:35 16° N visible
